Home   Weather   Comodoro Rivadavia   Past weeks

Flag for Argentina Past Weather in Comodoro Rivadavia, Chubut, Argentina — Yesterday and Last 2 Weeks

Now
52 °F

Passing clouds.


Feels Like: 49 °F
Forecast: N/A
Wind: 8 mph from Northwest

Location: Comodoro Rivadavia Aerodrome

Current Time: Aug 20, 2017 at 8:28:06 pm

Latest Report: Aug 20, 2017 at 8:00 pm


Visibility: N/A

Pressure: 29.71 "Hg

Humidity: 50%

Dew Point: 34 °F

Location of Comodoro RivadaviaLocation

Past Weather in Comodoro Rivadavia — Graph

°F

Comodoro Rivadavia Temperature Yesterday

Maximum temperature yesterday: 52 °F (at 3:00 pm)
Minimum temperature yesterday: 39 °F (at 4:00 am)
Average temperature yesterday: 45 °F

High & Low Weather Summary for the Past Weeks

 TemperatureHumidityPressure
High61 °F (Aug 11, 3:00 pm)100% (Aug 17, 11:00 pm)30.01 "Hg (Aug 17, 11:00 pm)
Low32 °F (Aug 8, 1:00 am)30% (Aug 18, 5:00 pm)29.03 "Hg (Aug 18, 10:33 am)
Average49 °F60%29.70 "Hg
* Reported Aug 5 7:00 pm — Aug 20 7:00 pm, Comodoro Rivadavia. Weather by CustomWeather, © 2017

Note: Actual official high and low records may vary slightly from our data, if they occured in-between our weather recording intervals... More about our weather records

Advertising

Comodoro Rivadavia Weather History for the Previous 24 Hours

Scroll right to see more
 ConditionsComfort  
Time TempWeatherWind HumidityBarometerVisibility
7:00 pm
Sun, Aug 20
52 °FPassing clouds.12 mph44%29.71 "HgN/A
6:00 pm54 °FPassing clouds.17 mph51%29.74 "HgN/A
5:00 pm52 °FPassing clouds.21 mph44%29.74 "HgN/A
4:00 pm54 °FPassing clouds.24 mph38%29.80 "HgN/A
3:00 pm54 °FPartly sunny.26 mph38%29.83 "HgN/A
2:00 pm55 °FPartly sunny.35 mph36%29.83 "HgN/A
1:31 pm54 °FScattered clouds.36 mph41%29.80 "HgN/A
1:00 pm54 °FScattered clouds.23 mph41%29.86 "HgN/A
12:00 pm52 °FSunny.28 mph41%29.89 "Hg10 mi
11:00 am50 °FSunny.25 mph40%29.89 "Hg10 mi
10:00 am46 °FSunny.24 mph46%29.92 "Hg10 mi
9:00 am46 °FSunny.31 mph46%29.89 "Hg10 mi
8:00 am45 °FClear.15 mph49%29.92 "Hg10 mi
7:00 am43 °FClear.21 mph53%29.95 "Hg10 mi
6:00 am43 °FPassing clouds.22 mph57%29.92 "HgN/A
5:00 am43 °FPassing clouds.9 mph57%29.95 "HgN/A
4:00 am41 °FPassing clouds.8 mph53%29.98 "HgN/A
3:00 am41 °FPassing clouds.12 mph57%29.98 "HgN/A
2:00 am39 °FPassing clouds.13 mph61%29.98 "HgN/A
1:00 am39 °FPassing clouds.14 mph65%29.98 "HgN/A
12:00 am41 °FClear.14 mph53%29.98 "Hg10 mi
11:00 pm
Sat, Aug 19
43 °FClear.9 mph57%29.95 "Hg10 mi
10:00 pm45 °FClear.16 mph53%29.92 "Hg10 mi
8:00 pm48 °FClear.14 mph40%29.86 "Hg10 mi
Weather by CustomWeather, © 2017

See weather overviewHow to use our weather pages